Simultaneous Nadir Overpasses (SNOs) Predictions

Prediction of SNOs between GOES-16 and METOP-C Satellite Orbit:

Table of predicted SNOs for the next 14.0 days since TLE Epoch: 9/28/2024
Index Date Time (GOES-16) GOES-16 Lat,Lon METOP-C Lat,Lon Distance(km) Time Diff (sec)
1 09/29/2024 02:30:48 0.06, -75.20 0.03, -75.28 9.63 80
2 10/01/2024 14:31:41 -0.06, -75.24 -0.17, -74.85 44.74 80
3 10/03/2024 02:48:01 0.06, -75.24 -0.89, -79.44 478.94 80
4 10/04/2024 02:30:01 0.06, -75.25 0.22, -74.44 91.86 80
5 10/05/2024 14:48:53 -0.06, -75.29 0.78, -79.00 423.06 80
6 10/06/2024 14:25:33 -0.06, -75.31 -0.34, -74.01 147.89 80
7 10/08/2024 02:44:34 0.06, -75.31 -0.70, -78.60 375.22 80
8 10/09/2024 02:26:34 0.05, -75.33 0.43, -73.60 195.89 80
9 10/10/2024 14:45:25 -0.05, -75.37 0.55, -78.17 318.43 80
10 10/11/2024 14:22:05 -0.05, -75.38 -0.53, -73.16 252.93 80
